Location: Limoges
(45.8354°N, 1.2645°E)
Time: 20:52:41
(UTC+02:00)

Courier 1B Rocket - Pass Details

Date: 29 February 2024
Orbit: 920 x 1201 km, 28.2° (Epoch: 21 April)

Event Time Altitude Azimuth Distance (km) Brightness Sun altitude
Rises 05:19:16 0° 243° (WSW) 3,584 - -24.3°
Reaches altitude 10° 05:23:36 10° 216° (SW) 2,611 - -23.5°
Maximum altitude 05:26:07 13° 192° (SSW) 2,418 - -23.1°
Exits shadow 05:26:21 13° 189° (S) 2,419 6.8 -23.1°
Drops below altitude 10° 05:28:38 10° 167° (SSE) 2,601 7.2 -22.7°
Sets 05:32:56 0° 140° (SE) 3,555 8.3 -22.0°
